Plymouth, NH

3:03 AM EDT on April 25, 2018 (GMT -0400)
Plymouth

Weather History for K1P1 - April, 2013

Change the Weather History Date:

Monday, April 15, 2013

  Actual Average (KLCI) Record (KLCI)
Temperature  
Mean Temperature 42 °F -  
Max Temperature 58 °F 54 °F 78 °F (2003)
Min Temperature 26 °F 31 °F 21 °F (1992)
Degree Days  
Heating Degree Days 23    
Moisture  
Dew Point 29 °F    
Average Humidity 66    
Maximum Humidity 99    
Minimum Humidity 31    
Precipitation  
Precipitation 0.00 in - - ()
Sea Level Pressure  
Sea Level Pressure 30.30 in    
Wind  
Wind Speed 2 mph (SE)    
Max Wind Speed 9 mph    
Max Gust Speed -    
Visibility 10 miles    
Events      
Averages and records for this station are not official NWS values.
T = Trace of Precipitation, MM = Missing Value Source: NWS Daily Summary

Daily Weather History Graph

Daily Weather History Graph

Search for Another Location

Airport or City:

Astronomy

Apr. 15, 2013 Rise Set
Actual Time 6:03 AM EDT 7:30 PM EDT
Civil Twilight 5:33 AM EDT 8:00 PM EDT
Nautical Twilight 4:57 AM EDT 8:37 PM EDT
Astronomical Twilight 4:19 AM EDT 9:16 PM EDT
Moon 9:21 AM EDT (4/15) No Moon Set
Length of Visible Light 14h 27m
Length of Day
13h 27m
Waxing Crescent, 24% of the Moon is Illuminated
Apr 15
Waxing Crescent
Apr 18
First Quarter
Apr 25
Full
May 2
Last Quarter
May 9
New

Hourly Weather History & Observations

Time (EDT) Temp. Windchill Dew Point Humidity Pressure Visibility Wind Dir Wind Speed Gust Speed Precip Events Conditions
12:15 AM 33.4 °F - 32.2 °F 95% 30.20 in 10.0 mi Calm Calm - N/A   Unknown
12:35 AM 31.1 °F - 30.0 °F 96% 30.21 in 10.0 mi Calm Calm - N/A   Unknown
12:55 AM 32.7 °F - 31.8 °F 96% 30.21 in 10.0 mi Calm Calm - N/A   Unknown
1:15 AM 30.2 °F - 29.3 °F 96% 30.22 in 10.0 mi Calm Calm - N/A   Unknown
1:35 AM 29.3 °F - 28.9 °F 99% 30.23 in 7.0 mi Calm Calm - N/A   Unknown
1:55 AM 29.8 °F - 29.3 °F 98% 30.23 in 10.0 mi Calm Calm - N/A   Unknown
2:15 AM 30.6 °F - 30.4 °F 99% 30.23 in 10.0 mi Calm Calm - N/A   Unknown
2:35 AM 31.8 °F 27.3 °F 31.5 °F 99% 30.23 in 10.0 mi West 4.6 mph - N/A   Unknown
3:15 AM 28.4 °F - 27.7 °F 97% 30.23 in 10.0 mi Calm Calm - N/A   Unknown
3:35 AM 29.5 °F - 28.9 °F 98% 30.23 in 10.0 mi Calm Calm - N/A   Unknown
3:55 AM 31.3 °F 25.6 °F 30.7 °F 98% 30.24 in 10.0 mi NW 5.8 mph - N/A   Unknown
4:15 AM 28.8 °F - 27.9 °F 96% 30.24 in 10.0 mi Calm Calm - N/A   Unknown
4:35 AM 28.0 °F - 27.3 °F 97% 30.25 in 10.0 mi Calm Calm - N/A   Unknown
4:55 AM 28.0 °F - 27.3 °F 97% 30.26 in 10.0 mi Calm Calm - N/A   Unknown
5:15 AM 27.9 °F - 27.1 °F 97% 30.27 in 10.0 mi Calm Calm - N/A   Unknown
5:35 AM 27.9 °F - 27.3 °F 98% 30.27 in 10.0 mi Calm Calm - N/A   Unknown
5:55 AM 27.1 °F - 26.6 °F 98% 30.29 in 10.0 mi Calm Calm - N/A   Unknown
6:15 AM 27.0 °F - 26.4 °F 98% 30.30 in 10.0 mi Calm Calm - N/A   Unknown
6:35 AM 26.6 °F - 26.1 °F 98% 30.30 in 10.0 mi Calm Calm - N/A   Unknown
6:55 AM 27.1 °F - 26.8 °F 99% 30.31 in 10.0 mi Calm Calm - N/A   Unknown
7:15 AM 28.0 °F - 27.5 °F 98% 30.33 in 10.0 mi Calm Calm - N/A   Unknown
7:35 AM 28.9 °F - 28.6 °F 99% 30.34 in 10.0 mi Calm Calm - N/A   Unknown
7:55 AM 30.9 °F - 30.2 °F 97% 30.35 in 10.0 mi Calm Calm - N/A   Unknown
8:15 AM 32.2 °F - 31.1 °F 96% 30.35 in 10.0 mi Calm Calm - N/A   Unknown
8:35 AM 34.2 °F - 32.0 °F 92% 30.36 in 10.0 mi Calm Calm - N/A   Unknown
8:55 AM 35.8 °F - 32.0 °F 86% 30.36 in 10.0 mi Calm Calm - N/A   Unknown
9:15 AM 37.4 °F - 32.2 °F 81% 30.35 in 10.0 mi Calm Calm - N/A   Unknown
9:35 AM 39.9 °F - 32.2 °F 74% 30.36 in 10.0 mi Calm Calm - N/A   Unknown
9:55 AM 41.9 °F - 30.9 °F 65% 30.36 in 10.0 mi Calm Calm - N/A   Unknown
10:15 AM 43.3 °F - 30.7 °F 61% 30.35 in 10.0 mi Calm Calm - N/A   Unknown
10:35 AM 44.6 °F - 30.7 °F 58% 30.35 in 10.0 mi Calm Calm - N/A   Unknown
10:55 AM 46.0 °F - 29.8 °F 53% 30.34 in 10.0 mi Calm Calm - N/A   Unknown
11:15 AM 48.2 °F - 26.4 °F 43% 30.34 in 10.0 mi SSE 4.6 mph - N/A   Unknown
11:35 AM 48.6 °F - 27.7 °F 44% 30.35 in 10.0 mi South 5.8 mph - N/A   Unknown
11:55 AM 49.1 °F - 28.6 °F 45% 30.34 in 10.0 mi SSW 3.5 mph - N/A   Unknown
12:15 PM 49.3 °F - 27.9 °F 44% 30.34 in 10.0 mi South 5.8 mph - N/A   Unknown
12:35 PM 50.9 °F - 27.3 °F 40% 30.34 in 10.0 mi South 6.9 mph - N/A   Unknown
12:55 PM 51.3 °F - 26.8 °F 39% 30.33 in 10.0 mi South 5.8 mph - N/A   Unknown
1:15 PM 51.1 °F - 25.0 °F 36% 30.32 in 10.0 mi SSE 4.6 mph - N/A   Unknown
1:35 PM 52.9 °F - 25.7 °F 35% 30.31 in 10.0 mi South 8.1 mph - N/A   Unknown
1:55 PM 52.5 °F - 25.3 °F 35% 30.31 in 10.0 mi South 5.8 mph - N/A   Unknown
2:15 PM 53.6 °F - 25.5 °F 34% 30.31 in 10.0 mi South 4.6 mph - N/A   Unknown
2:35 PM 53.4 °F - 25.5 °F 34% 30.31 in 10.0 mi Calm Calm - N/A   Unknown
3:15 PM 55.9 °F - 26.4 °F 32% 30.29 in 10.0 mi ESE 4.6 mph - N/A   Unknown
3:35 PM 55.4 °F - 25.3 °F 31% 30.28 in 10.0 mi Calm Calm - N/A   Unknown
3:55 PM 56.5 °F - 26.2 °F 31% 30.27 in 10.0 mi SSE 4.6 mph - N/A   Unknown
4:15 PM 57.0 °F - 26.8 °F 31% 30.26 in 10.0 mi East 4.6 mph - N/A   Unknown
4:35 PM 57.6 °F - 26.6 °F 31% 30.25 in 10.0 mi Calm Calm - N/A   Unknown
4:55 PM 58.1 °F - 27.3 °F 31% 30.25 in 10.0 mi SE 4.6 mph - N/A   Unknown
5:15 PM 58.1 °F - 27.3 °F 31% 30.26 in 10.0 mi SE 6.9 mph - N/A   Unknown
5:35 PM 57.6 °F - 27.0 °F 31% 30.26 in 10.0 mi ESE 8.1 mph - N/A   Unknown
5:55 PM 57.6 °F - 27.0 °F 31% 30.26 in 10.0 mi SE 5.8 mph - N/A   Unknown
6:15 PM 57.2 °F - 27.7 °F 32% 30.26 in 10.0 mi East 8.1 mph - N/A   Unknown
6:35 PM 56.8 °F - 28.0 °F 33% 30.27 in 10.0 mi ESE 5.8 mph - N/A   Unknown
6:55 PM 55.9 °F - 28.2 °F 35% 30.28 in 10.0 mi ESE 6.9 mph - N/A   Unknown
7:15 PM 54.7 °F - 28.6 °F 37% 30.29 in 10.0 mi SE 3.5 mph - N/A   Unknown
7:35 PM 53.4 °F - 29.7 °F 40% 30.30 in 10.0 mi Calm Calm - N/A   Unknown
7:55 PM 51.3 °F - 30.0 °F 44% 30.30 in 10.0 mi East 5.8 mph - N/A   Unknown
8:15 PM 50.0 °F - 31.8 °F 50% 30.30 in 10.0 mi East 9.2 mph - N/A   Unknown
8:35 PM 48.4 °F - 32.9 °F 55% 30.32 in 10.0 mi SE 3.5 mph - N/A   Unknown
8:55 PM 47.3 °F - 33.3 °F 58% 30.33 in 10.0 mi East 5.8 mph - N/A   Unknown
9:15 PM 46.4 °F 42.9 °F 33.1 °F 60% 30.34 in 10.0 mi East 6.9 mph - N/A   Unknown
9:35 PM 44.4 °F 40.0 °F 33.4 °F 65% 30.35 in 10.0 mi East 8.1 mph - N/A   Unknown
10:15 PM 43.7 °F 40.3 °F 32.9 °F 66% 30.34 in 10.0 mi ENE 5.8 mph - N/A   Unknown
10:35 PM 42.6 °F 38.4 °F 32.7 °F 68% 30.34 in 10.0 mi East 6.9 mph - N/A   Unknown
10:55 PM 41.7 °F 39.8 °F 32.9 °F 71% 30.36 in 10.0 mi ENE 3.5 mph - N/A   Unknown
11:15 PM 40.3 °F - 32.9 °F 75% 30.35 in 10.0 mi Calm Calm - N/A   Unknown
11:35 PM 39.7 °F - 32.9 °F 77% 30.36 in 10.0 mi Calm Calm - N/A   Unknown
11:55 PM 37.4 °F - 33.4 °F 86% 30.37 in 10.0 mi Calm Calm - N/A   Unknown